Regional Weather Roundup
Issued by NWS Cleveland, OH

Home | Current Version | Previous Version | Text Only | Print | Product List | Glossary On
Versions: 1 2 3 4 5 6 7 8 9 10 11 12 13 14 15 16 17 18 19 20 21 22 23 24 25 26 27 28 29 30 31 32 33 34 35 36 37 38 39 40 41 42 43 44 45 46 47 48 49 50
000
ASUS41 KCLE 270712
RWRCLE
OHIO REGIONAL WEATHER ROUNDUP
NATIONAL WEATHER SERVICE WILMINGTON, OH
300 AM EDT THU JUL 27 2017

NOTE: "FAIR" INDICATES FEW OR NO CLOUDS BELOW 12,000 FEET WITH NO
SIGNIFICANT WEATHER AND/OR OBSTRUCTIONS TO VISIBILITY.

OHZ001>008-015>018-024>027-034-035-043-044-270800-
   NORTHWEST OHIO

CITY           SKY/WX    TMP DP  RH WIND       PRES   REMARKS
DEFIANCE       FAIR      70  63  78 CALM      29.98S
FINDLAY        FAIR      70  63  78 S5        29.97F
TOLEDO EXPRESS FAIR      66  65  96 E3        29.97F
TOLEDO EXEC    FAIR      68  66  93 CALM      29.99F
LIMA           FAIR      68  65  90 S6        29.99F
$$

OHZ009>014-019>023-028>033-038-089-270800-
   NORTHEAST OHIO

CITY           SKY/WX    TMP DP  RH WIND       PRES   REMARKS
CLE-HOPKINS    CLOUDY    69  64  84 CALM      30.01F
CLE-LAKEFRONT  FAIR      70  63  78 SE7       29.98F
CUY CO. ARPT   NOT AVBL
LORAIN-ELYRIA  FAIR      64  59  83 S3        30.00F
ASHTABULA      FAIR      65  65 100 CALM      30.01F
AKRON-CANTON   MOCLDY    67  61  81 CALM      30.02F
WOOSTER        FAIR      62  61  96 SE3       30.02F
MANSFIELD      FAIR      67  63  87 SE5       30.02F
YOUNGSTOWN     CLOUDY    64  62  93 SE5       30.01F
$$

OHZ042-051>053-060>062-070>072-077>081-270800-
  SOUTHWEST OHIO

CITY           SKY/WX    TMP DP  RH WIND       PRES   REMARKS
CINC-COVINGTON CLOUDY    73  70  90 S6        29.98F
CINC-LUNKEN    FAIR      72  71  97 CALM      29.98F
HAMILTON       FAIR      72  70  93 CALM      29.98F
DAYTON         MOCLDY    70  64  81 SE7       30.00F
WRIGHT-PAT AFB CLOUDY    71  65  82 CALM      29.99F
DAYTON GENERAL FAIR      72  65  78 SE6       29.99F
WILMINGTON     FAIR      69  65  86 SE3       30.00F
$$

OHZ036-037-039>041-045>050-054>059-063>069-073>076-082>088-270800-
  CENTRAL AND SOUTHEAST OHIO

CITY           SKY/WX    TMP DP  RH WIND       PRES   REMARKS
COLUMBUS       CLOUDY    69  64  84 CALM      29.99F
OSU AIRPORT    FAIR      67  64  90 CALM      29.99F
BOLTON FIELD   FAIR      65  62  90 CALM      30.00F
RICKENBACK AFB FAIR      64  64  98 CALM      29.99F
NEWARK         FAIR      64  63  96 CALM      30.00F
MARION         FAIR      66  62  87 S7        30.00F
LANCASTER      FAIR      62  62 100 CALM      30.00F FOG
ZANESVILLE     FAIR      63  61  93 CALM      30.01F
NEW PHILLY     FAIR      65  64  97 SE3       30.01F
$$




USA.gov is the U.S. government's official web portal to all federal, state and local government web resources and services.